Alliance, NE

3:32 AM MDT on April 25, 2018 (GMT -0600)
Alliance Municipal

Weather History for KAIA - July, 2012

Change the Weather History Date:

Wednesday, July 18, 2012

  Actual Average Record
Temperature  
Mean Temperature 80 °F 73 °F  
Max Temperature 100 °F 89 °F 103 °F (2006)
Min Temperature 59 °F 57 °F 45 °F (2005)
Degree Days  
Heating Degree Days 0 0  
Month to date heating degree days 0 5  
Since 1 June heating degree days 16 98  
Since 1 July heating degree days 0 5  
Cooling Degree Days 15 8  
Month to date cooling degree days 208 125  
Year to date cooling degree days 498 223  
Since 1 June cooling degree days 478 213  
Growing Degree Days 30 (Base 50)    
Moisture  
Dew Point 48 °F    
Average Humidity 48    
Maximum Humidity 84    
Minimum Humidity 11    
Precipitation  
Precipitation 0.00 in 0.09 in 1.40 in (1897)
Month to date precipitation 0.22 1.43  
Year to date precipitation 4.79 9.82  
Sea Level Pressure  
Sea Level Pressure 29.88 in    
Wind  
Wind Speed 7 mph (ESE)    
Max Wind Speed 18 mph    
Max Gust Speed 23 mph    
Visibility 10 miles    
Events      
T = Trace of Precipitation, MM = Missing Value Source: NWS Daily Summary

Daily Weather History Graph

Daily Weather History Graph

Search for Another Location

Airport or City:

Astronomy

Jul. 18, 2012 Rise Set
Actual Time 5:31 AM MDT 8:22 PM MDT
Civil Twilight 4:58 AM MDT 8:55 PM MDT
Nautical Twilight 4:17 AM MDT 9:37 PM MDT
Astronomical Twilight 3:28 AM MDT 10:25 PM MDT
Moon 5:08 AM MDT (7/18) 7:52 PM MDT (7/18)
Length of Visible Light 15h 56m
Length of Day
14h 51m
Waning Crescent, 0% of the Moon is Illuminated
Jul 18
Waning Crescent
Jul 18
New
Jul 26
First Quarter
Aug 1
Full
Aug 9
Last Quarter

Hourly Weather History & Observations

Time (MDT) Temp. Heat Index Dew Point Humidity Pressure Visibility Wind Dir Wind Speed Gust Speed Precip Events Conditions
12:53 AM 64.4 °F - 55.4 °F 73% 29.99 in 10.0 mi Calm Calm - N/A   Clear
1:53 AM 61.0 °F - 55.9 °F 83% 29.87 in 10.0 mi SSW 4.6 mph - N/A   Clear
2:53 AM 61.0 °F - 55.0 °F 81% 29.85 in 10.0 mi SE 4.6 mph - N/A   Clear
3:53 AM 61.0 °F - 55.0 °F 81% 29.85 in 10.0 mi South 6.9 mph - N/A   Clear
4:53 AM 61.0 °F - 55.0 °F 81% 29.84 in 10.0 mi SW 8.1 mph - N/A   Clear
5:53 AM 62.1 °F - 54.0 °F 75% 29.86 in 10.0 mi West 3.5 mph - N/A   Clear
6:53 AM 64.9 °F - 55.9 °F 73% 29.86 in 10.0 mi Calm Calm - N/A   Clear
7:53 AM 77.0 °F - 55.0 °F 47% 29.87 in 10.0 mi SSE 6.9 mph - N/A   Clear
8:53 AM 81.0 °F 80.5 °F 54.0 °F 39% 29.90 in 10.0 mi South 3.5 mph - N/A   Clear
9:53 AM 84.9 °F 83.2 °F 53.1 °F 33% 29.90 in 10.0 mi Calm Calm - N/A   Clear
10:53 AM 88.0 °F - 50.0 °F 27% 29.90 in 10.0 mi North 8.1 mph - N/A   Clear
11:53 AM 90.0 °F 87.5 °F 53.1 °F 28% 29.89 in 10.0 mi NE 4.6 mph - N/A   Clear
12:53 PM 93.2 °F - 48.2 °F 21% 30.04 in 10.0 mi North 8.1 mph - N/A   Clear
1:53 PM 96.1 °F - 41.0 °F 15% 29.87 in 10.0 mi Variable 4.6 mph - N/A   Clear
2:53 PM 99.0 °F - 37.0 °F 12% 29.86 in 10.0 mi North 10.4 mph - N/A   Clear
3:53 PM 99.0 °F - 37.9 °F 12% 29.84 in 10.0 mi NNE 9.2 mph - N/A   Clear
4:53 PM 99.0 °F - 37.9 °F 12% 29.83 in 10.0 mi NNE 6.9 mph - N/A   Clear
5:53 PM 98.1 °F - 36.0 °F 11% 29.82 in 10.0 mi North 6.9 mph - N/A   Clear
6:53 PM 97.0 °F - 37.0 °F 12% 29.81 in 10.0 mi NNE 4.6 mph - N/A   Clear
7:53 PM 89.1 °F - 44.1 °F 21% 29.82 in 10.0 mi East 9.2 mph - N/A   Clear
8:53 PM 79.0 °F - 44.1 °F 29% 29.86 in 10.0 mi SSE 9.2 mph - N/A   Clear
9:53 PM 77.0 °F - 46.9 °F 34% 29.90 in 10.0 mi SSE 12.7 mph - N/A   Clear
10:53 PM 75.9 °F - 48.9 °F 38% 29.90 in 10.0 mi SSE 12.7 mph - N/A   Clear
11:53 PM 71.1 °F - 51.1 °F 49% 29.91 in 10.0 mi SSE 10.4 mph - N/A   Clear